{"data":{"norad_id":50496,"intl_designator":"2021-132AD","name":"ONEWEB-0421","alt_names":[],"object_type":"PAYLOAD","status":"ACTIVE","operator":null,"country":"UK","launch_date":"2021-12-27","launch_site_code":"TYMSC","launch_vehicle":null,"mission":null,"orbit_class":"UNKNOWN","rcs_meters":null,"size_class":null,"mass_kg":null,"dimensions":null,"purposes":["comms"],"wikipedia_slug":null,"has_3d_model":false,"image_url":null,"decayed_at":null,"tle_current":{"epoch":"2026-09-20T02:05:23.267040Z","epoch_age_seconds":61560,"freshness":"FRESH","line1":"1 50496U 21132AD  26263.08707485  .00000083  00000+0  17790-3 0  9998","line2":"2 50496  87.9166 316.5995 0002315  95.6924 264.4472 13.18687941234126","mean_motion":13.18687941,"eccentricity":0.0002315,"inclination_deg":87.9166,"raan_deg":316.5995,"arg_perigee_deg":95.6924,"mean_anomaly_deg":264.4472,"bstar":0.0001779,"rev_number":23412,"period_min":109.19945160854,"perigee_km":1187.9837381376,"apogee_km":1191.487663198,"semimajor_km":7567.8727006678,"source":"CELESTRAK","updated_at":"2026-09-20T09:00:44.705549Z"}}}